Flag for Germany Weather past 2 weeks in Rheinberg, North Rhine-Westphalia, Germany

Now
52 °F

Overcast.


Feels Like: 49 °F
Forecast: 41 / 50 °F
Wind: 8 mph from Southwest

Location: Duesseldorf

Current Time: Mar 29, 2015 at 5:08:49 AM

Latest Report: Mar 29, 2015 at 4:00 AM


Visibility: 25 mi

Pressure: 29.74 "Hg

Humidity: 76%

Dew point: 45 °F

Location of RheinbergLocation

Historic Weather in Rheinberg — Graph

°F

Rheinberg temperature yesterday

Maximum temperature yesterday: 53 °F (at 12:00 PM)
Minimum temperature yesterday: 32 °F (at 5:00 AM)
Average temperature yesterday: 45 °F

Past Weeks' High & Low Weather Summary

 TemperatureHumidityPressure
High65 °F (Mar 17, 3:00 PM)99% (Mar 20, 1:00 AM)30.39 "Hg (Mar 20, 1:00 AM)
Low31 °F (Mar 20, 3:00 AM)35% (Mar 17, 5:00 PM)29.66 "Hg (Mar 25, 2:00 AM)
Average43 °F79%30.11 "Hg
* Reported Mar 14 3:00 AM — Mar 29 4:00 AM, Rheinberg, Weather by CustomWeather, © 2015

Note: Actual official high and low records may vary slightly from our data, if they occured in-between our weather recording intervals... More about our weather records

Advertising

Rheinberg weather history for previous 24 hours

 ConditionsComfort  
Time TempWeatherWind HumidityBarometerVisibility
4:00 AM
Sun, Mar 29
52 °FOvercast.8 mph76%29.74 "Hg25 mi
3:00 AM53 °FPassing clouds.10 mph76%29.76 "Hg22 mi
1:00 AM53 °FOvercast.8 mph90%29.75 "Hg12 mi
12:00 AM52 °FRain. Low clouds.8 mph95%29.78 "Hg7 mi
11:00 PM
Sat, Mar 28
52 °FRain. Low clouds.7 mph95%29.80 "Hg7 mi
9:00 PM52 °FOvercast.7 mph88%29.84 "Hg19 mi
8:00 PM50 °FRain. Low clouds.6 mph92%29.87 "Hg7 mi
7:00 PM50 °FOvercast.6 mph92%29.89 "Hg12 mi
6:00 PM49 °FLow clouds.6 mph93%29.90 "Hg9 mi
5:00 PM48 °FLow clouds.7 mph95%29.92 "Hg7 mi
3:00 PM49 °FRain. Overcast.7 mph90%29.97 "Hg4 mi
2:00 PM50 °FLight rain. Overcast.7 mph81%30.00 "Hg7 mi
1:00 PM51 °FLight rain. Overcast.8 mph67%30.02 "Hg11 mi
12:00 PM53 °FOvercast.8 mph52%30.04 "Hg22 mi
11:00 AM52 °FOvercast.8 mph56%30.07 "Hg22 mi
9:00 AM43 °FOvercast.6 mph75%30.14 "Hg22 mi
8:00 AM40 °FPartly sunny.6 mph82%30.15 "Hg22 mi
7:00 AM37 °FPassing clouds.5 mph87%30.17 "Hg22 mi
6:00 AM33 °FPassing clouds.2 mph96%30.19 "Hg16 mi
5:00 AM32 °FPassing clouds.2 mph96%30.19 "Hg16 mi
Weather by CustomWeather, © 2015

See weather overviewHow to use our weather pages